RH
20 17 15 12 14 17 25 37 44 63 66 67 72 76 79 71 85 100 96 68 50 47 48 39 65 38 45 42 44 32 43 59 57 55 39 46 44 52 49 42 39 36 34 33 31
20 18 15 14 17 19 35 36 46 67 74 78 78 96 90 89 86 98 92 83 62 66 53 57 95 94 75 61 56 34 45 45 50 44 50 45 44 45 46 43 38 36 34 31 29
22 18 14 17 18 25 35 40 51 60 67 72 85 83 88 84 81 86 89 88 65 70 76 69 71 88 100 83 63 37 44 44 47 57 59 45 46 50 47 45 38 33 33 29 32
23 16 15 17 22 29 35 43 52 61 63 68 94 90 94 99 95 89 90 86 67 87 95 87 81 82 100 92 74 38 32 46 46 54 58 55 48 49 47 45 35 39 34 32 35
22 15 17 18 23 36 40 55 65 67 70 69 93 98 100 95 99 98 95 89 70 57 83 92 88 99 100 97 83 53 34 46 51 47 48 52 52 48 45 40 40 44 34 29 36
21 15 18 21 21 34 45 58 70 67 78 76 71 78 98 98 98 97 97 94 79 68 80 87 79 88 95 92 87 68 38 41 48 50 48 38 40 46 42 39 44 46 39 33 32
19 19 18 26 24 26 47 54 63 68 79 74 82 75 80 91 87 100 100 97 81 69 80 85 83 90 100 96 89 78 48 37 44 41 43 49 42 42 42 42 45 39 37 35 28
20 22 18 26 28 27 28 51 58 62 80 86 83 79 80 70 80 96 91 98 84 88 89 83 82 85 94 98 90 76 44 45 42 43 34 46 50 48 48 46 40 40 35 24 22
19 21 24 19 27 29 29 31 53 60 70 81 73 82 84 79 70 70 82 88 82 88 91 87 89 81 90 81 94 72 52 57 55 66 57 54 57 57 51 45 42 39 26 23 20
17 20 22 25 21 24 31 27 38 56 59 70 72 81 80 88 84 77 63 83 88 98 100 98 86 82 82 90 89 67 62 58 55 71 68 63 55 54 50 44 38 28 18 16 18
13 18 22 23 26 24 28 30 24 40 55 64 78 75 79 84 93 92 99 78 64 77 81 92 86 78 66 69 76 61 65 53 56 63 70 60 50 53 48 36 27 18 11 11 21
9 15 20 24 24 26 28 30 27 27 45 56 71 74 73 73 75 98 98 99 98 89 81 85 75 98 97 92 79 61 63 60 55 54 57 55 42 40 37 33 30 24 14 12 23
12 10 18 23 24 25 26 30 28 26 30 50 61 63 63 63 63 70 88 90 95 98 98 99 99 98 99 93 77 64 59 57 54 49 46 43 36 32 33 26 21 17 20 26 28
17 10 12 20 24 26 26 29 26 24 29 44 54 56 60 58 57 60 62 78 99 100 98 98 98 98 99 85 74 56 58 53 53 46 44 42 43 47 33 20 16 20 19 18 24
17 17 9 15 24 24 26 26 24 23 40 34 47 51 59 57 56 56 58 60 79 82 95 96 97 98 88 77 65 53 54 48 47 40 41 42 37 26 32 26 24 24 25 30 28
10 18 14 11 19 22 23 22 24 30 16 28 36 40 40 47 55 53 53 56 66 77 81 88 99 96 97 84 63 50 49 49 47 47 52 42 42 24 20 17 16 15 24 30 33
5 14 19 12 14 22 21 21 25 21 16 17 26 28 34 40 42 42 46 40 54 66 67 74 89 85 90 70 67 52 52 54 63 63 65 37 50 26 20 16 14 13 16 20 24
6 7 16 17 12 17 22 23 21 18 15 15 18 21 22 24 26 32 30 28 41 53 57 59 62 76 92 72 69 58 45 45 66 74 62 42 44 34 18 26 24 23 30 32 29
12 7 11 19 16 14 19 21 18 19 18 18 21 23 23 22 31 36 28 30 36 50 47 49 47 68 76 80 64 52 47 42 34 46 42 30 27 19 17 15 13 23 23 25 30
16 11 8 14 20 16 16 17 18 19 19 19 21 22 28 23 26 28 34 35 38 34 38 46 42 49 62 61 61 47 47 33 41 64 62 41 30 18 10 9 10 16 20 26 28
18 16 13 12 16 18 15 14 16 19 21 24 25 22 22 23 24 27 27 30 27 28 34 40 39 42 41 41 39 40 42 35 30 37 66 67 34 12 10 10 11 11 13 16 18
17 18 15 12 15 17 17 16 16 16 19 23 33 33 26 23 24 27 26 29 30 28 29 40 39 36 37 32 31 29 32 39 28 28 40 58 30 23 16 12 11 12 17 20 23
20 20 17 14 15 18 20 19 17 16 17 16 16 24 35 27 28 31 30 26 26 28 31 32 39 32 33 38 29 29 28 26 35 28 32 41 17 18 20 14 12 15 15 18 25
23 23 19 16 15 16 21 21 20 17 16 16 15 14 20 31 34 30 32 33 33 28 29 32 33 29 27 26 30 35 28 25 25 29 26 27 19 15 14 13 13 13 14 15 16
26 25 22 20 19 21 24 22 22 22 20 18 17 15 14 17 17 20 27 35 36 34 32 35 31 28 25 26 35 40 32 26 24 19 23 15 16 11 12 13 13 14 13 13 13
24 26 25 24 21 19 21 19 21 24 23 21 19 19 18 17 17 16 16 16 16 19 19 22 32 32 29 30 31 26 22 29 32 27 23 20 14 12 14 14 14 14 14 13 13
25 28 30 27 26 22 18 19 22 25 27 27 25 23 22 20 20 20 21 20 19 19 21 23 22 21 18 17 20 21 12 17 16 17 19 22 13 15 15 16 16 17 18 19 20
Wind_Speed
17 15 16 19 19 19 20 24 25 19 12 7 9 7 4 5 9 6 6 8 11 15 17 21 15 17 24 33 37 41 33 36 39 42 39 25 26 26 23 21 20 14 13 12 11
14 14 17 20 20 19 20 23 25 20 16 10 9 5 1 5 10 10 8 8 13 14 17 18 21 17 22 31 33 41 40 37 38 42 38 27 27 26 26 23 19 15 14 13 13
13 14 18 20 21 20 20 22 23 22 16 12 10 7 2 3 7 10 13 10 14 15 13 18 26 21 18 25 32 41 41 29 34 31 29 35 28 26 24 24 18 12 13 12 17
12 13 17 20 21 21 21 21 21 21 19 16 11 9 4 3 3 9 9 8 14 17 12 19 22 25 21 22 30 37 42 27 32 26 27 35 29 29 27 22 17 15 10 12 17
11 12 16 19 20 22 22 23 22 20 20 15 7 4 0 1 2 4 9 11 13 16 14 13 23 22 21 21 24 35 41 29 32 29 27 31 38 31 29 23 20 19 13 16 20
11 10 14 18 20 22 22 25 25 20 19 13 15 7 1 1 5 7 12 13 12 15 14 15 22 18 17 21 21 29 33 31 32 24 30 24 31 35 31 26 23 19 15 17 21
11 9 11 15 18 20 21 26 24 22 22 16 14 8 3 5 8 4 7 14 14 12 12 14 17 22 16 18 21 14 26 33 25 20 26 30 26 33 30 27 24 21 18 20 20
11 10 9 12 15 17 19 21 25 20 25 21 15 13 9 7 7 8 8 13 15 13 12 14 15 20 20 17 20 18 24 27 27 22 29 31 34 31 29 28 25 20 18 18 18
13 10 9 9 12 15 16 18 21 26 20 28 15 14 19 8 1 10 11 11 13 12 14 14 15 17 18 15 21 23 21 26 22 24 31 35 34 36 33 29 24 20 18 17 17
16 13 9 8 9 12 15 15 16 19 24 18 22 13 22 24 15 3 10 13 13 14 13 15 16 16 20 24 28 33 24 27 16 25 31 36 31 36 33 28 24 20 18 18 17
15 14 13 8 8 9 10 11 11 14 17 19 17 22 21 24 23 18 9 4 12 14 13 15 16 21 20 22 17 29 23 29 19 22 31 27 23 33 30 27 24 20 19 18 16
17 14 13 11 7 7 8 10 10 10 14 16 12 14 17 19 19 20 17 1 3 8 12 16 18 13 17 15 22 24 25 23 13 19 20 22 19 25 29 25 22 21 22 20 19
18 16 13 12 8 7 8 8 9 7 8 12 12 12 13 15 16 13 13 14 7 7 11 10 11 17 11 19 20 21 27 23 20 17 17 18 18 25 26 24 24 24 21 20 20
17 17 14 12 9 7 6 8 8 6 5 7 8 9 12 9 12 11 15 6 7 6 7 9 16 12 16 21 22 29 25 19 21 19 11 20 8 24 25 26 27 26 25 24 21
15 17 16 13 11 7 7 7 6 4 4 7 6 7 7 9 7 8 10 10 3 6 3 4 8 10 22 14 18 15 22 23 21 21 18 20 10 14 27 32 31 27 25 23 22
14 15 16 14 11 8 7 7 5 2 2 1 4 5 5 5 5 6 7 8 6 5 8 7 11 5 10 6 9 17 20 23 21 18 6 15 22 19 29 36 31 29 27 24 23
15 14 14 13 11 8 7 6 3 3 2 1 1 2 3 3 3 3 4 5 1 5 6 4 3 4 13 8 13 15 21 6 2 2 5 14 17 30 16 25 30 31 26 23 22
15 14 13 13 11 9 7 5 2 2 2 1 1 2 3 3 4 4 3 0 2 2 6 4 4 4 12 11 7 19 8 7 5 4 3 5 12 23 29 21 19 30 30 27 25
14 15 13 12 11 10 8 4 3 4 3 3 4 5 3 3 3 3 2 2 3 7 2 3 3 9 7 13 7 14 5 5 7 5 2 11 15 13 20 21 28 23 32 33 31
15 14 14 12 12 9 8 6 5 5 4 4 3 4 5 4 3 3 1 3 4 4 4 4 4 10 18 13 9 10 14 4 2 3 3 6 12 19 9 19 24 27 25 27 28
16 17 14 13 13 11 9 6 5 4 5 5 5 5 5 5 5 4 3 4 2 3 7 7 4 9 14 14 15 15 13 9 4 3 4 1 7 11 23 17 18 26 29 30 26
19 18 17 17 13 11 10 9 7 5 5 6 7 8 8 6 6 5 4 5 6 3 2 6 5 7 12 12 10 12 14 17 6 5 6 3 7 6 13 19 25 18 23 23 25
24 20 20 18 15 12 13 12 10 9 7 6 5 6 6 8 5 5 5 5 5 7 3 4 5 5 5 12 20 18 21 19 23 17 11 2 4 2 3 1 4 15 18 19 22
23 18 18 17 19 18 15 14 13 10 10 10 8 8 7 7 10 7 6 5 6 7 7 6 9 9 10 3 9 18 24 24 23 20 24 28 28 12 13 20 15 7 7 11 15
23 22 21 17 14 16 16 15 13 12 12 11 10 8 8 6 7 11 10 10 10 10 10 10 10 12 15 16 16 15 16 21 29 32 29 36 35 28 27 29 25 19 18 20 19
26 23 23 23 22 21 21 20 19 17 16 14 13 11 11 10 9 10 9 9 9 9 11 13 11 12 16 16 20 24 24 26 27 29 34 38 40 33 31 26 26 26 24 23 22
27 26 25 24 23 22 23 20 18 18 18 17 15 15 14 10 12 12 13 13 13 12 11 12 10 8 7 11 13 20 29 31 33 36 36 38 34 32 28 26 25 26 26 26 25
Wind_Direction
7 358 355 355 350 351 356 2 5 7 357 325 325 328 288 227 219 225 224 227 205 197 199 196 196 211 203 199 198 195 197 205 210 212 207 202 203 204 201 207 212 215 208 207 210
358 1 1 1 357 4 7 7 15 17 15 10 10 12 339 195 213 215 221 206 193 185 192 199 183 206 202 201 199 198 202 203 207 216 212 197 203 208 201 201 203 200 210 216 220
2 8 9 7 9 12 12 13 18 18 12 12 33 47 75 165 201 218 224 209 184 180 188 196 194 197 202 200 201 201 207 198 201 213 216 203 206 213 215 208 217 236 241 246 226
10 15 18 16 17 18 16 16 16 14 16 11 35 32 79 143 186 215 219 194 187 188 172 192 191 201 202 204 205 208 209 194 196 201 204 205 212 221 225 232 240 235 225 215 214
12 20 27 22 25 22 21 18 14 11 15 22 35 26 301 190 225 215 190 180 186 190 191 184 192 200 202 204 209 214 212 195 191 193 189 205 216 222 223 228 232 231 224 219 213
14 20 28 25 26 26 23 18 14 20 19 27 18 33 26 295 254 247 160 181 179 186 193 195 198 201 210 207 208 216 215 196 202 208 191 200 207 213 217 223 226 224 222 226 226
12 17 25 29 23 27 28 22 23 31 32 29 26 31 22 251 290 301 194 196 188 194 201 206 206 208 188 205 208 208 212 200 215 218 201 199 212 207 214 218 220 222 225 230 231
13 9 11 22 24 25 24 27 29 28 31 28 40 50 18 306 243 222 208 190 187 190 202 204 204 212 230 197 196 182 198 203 213 208 204 194 202 206 208 213 217 222 227 224 224
11 7 3 359 12 20 20 17 26 30 32 31 42 47 35 25 228 215 218 197 208 213 204 209 205 208 216 228 184 186 195 194 202 200 195 196 200 198 204 208 216 224 228 224 224
7 3 358 349 349 6 14 10 13 22 34 41 39 57 49 43 39 61 209 208 219 221 218 217 217 214 209 205 191 194 191 191 199 192 192 194 203 199 202 208 214 222 233 236 228
11 3 356 346 332 346 358 0 6 22 30 41 50 51 45 45 41 44 49 236 233 232 232 232 222 218 224 219 211 201 198 190 204 192 188 188 199 200 203 208 213 221 233 236 224
6 6 358 350 342 336 340 347 352 360 23 36 47 46 42 36 35 43 46 350 187 220 222 226 230 222 184 191 196 191 199 195 201 190 182 189 193 201 209 216 226 233 237 234 225
3 3 2 354 347 346 336 336 342 339 8 32 51 39 23 37 35 34 36 50 77 149 165 159 199 164 171 185 183 183 197 194 201 187 187 195 206 210 214 221 226 225 225 225 229
360 359 3 3 349 352 337 336 338 329 332 21 28 32 20 15 31 41 33 22 47 149 126 119 162 155 156 177 191 198 191 184 199 198 182 193 212 216 213 217 222 221 224 227 227
353 356 359 5 353 351 345 339 335 345 10 350 5 18 27 23 19 20 33 36 67 51 57 87 147 159 161 159 178 172 189 197 193 202 201 211 238 234 221 226 225 225 225 226 228
346 348 355 358 360 348 348 338 335 321 267 5 353 357 3 2 17 7 7 41 68 98 104 87 156 158 153 156 155 178 179 184 194 192 214 213 216 241 232 234 235 233 232 231 231
338 339 346 353 351 349 336 338 322 273 289 269 312 359 354 352 351 350 357 4 65 133 153 114 100 108 179 168 163 169 172 116 86 189 207 218 217 229 223 233 239 243 241 241 239
330 331 330 340 348 340 334 320 247 286 278 274 304 313 325 339 334 335 275 13 358 209 154 170 152 180 173 151 168 165 188 161 167 172 225 206 238 237 236 236 230 228 232 238 240
322 323 322 324 333 335 328 295 291 280 252 262 295 294 297 332 332 340 81 177 154 166 287 188 177 164 151 177 224 182 263 158 119 141 145 221 255 256 242 238 236 232 222 229 235
312 313 311 311 316 318 314 300 286 269 254 272 287 269 296 302 313 321 243 165 166 211 209 195 163 190 184 188 227 236 208 237 185 119 240 250 244 230 250 238 232 231 227 227 236
307 306 298 294 299 295 291 291 289 269 264 271 272 275 277 291 290 298 239 204 308 230 191 194 201 193 191 198 211 220 230 219 206 224 175 255 250 231 233 238 229 233 235 236 238
302 296 295 291 280 278 282 287 287 266 262 272 281 269 271 272 287 284 262 232 237 246 236 192 225 208 192 188 222 244 235 233 221 215 230 250 285 263 232 235 235 235 228 232 232
291 284 281 278 268 266 268 271 272 270 264 262 257 270 270 265 271 262 267 261 269 222 229 223 223 182 235 241 211 227 232 241 235 242 246 201 259 262 216 307 269 235 236 236 234
282 277 274 266 263 264 264 263 261 263 264 263 263 263 258 258 257 264 257 267 253 244 236 238 241 225 207 211 216 226 221 224 229 238 252 251 259 252 275 289 288 283 257 240 235
271 268 264 261 265 256 251 256 255 258 259 259 267 250 249 247 255 261 264 265 259 254 248 246 261 257 258 258 258 249 239 239 237 236 235 259 258 264 263 264 271 271 257 249 244
262 259 257 259 260 260 257 261 260 257 253 253 255 264 262 255 256 266 264 264 268 258 246 248 259 277 275 265 260 261 253 249 246 245 250 254 261 257 261 265 267 267 261 254 253
259 255 254 254 256 258 261 259 257 253 260 256 253 256 260 264 258 260 264 262 259 255 252 252 255 264 269 274 271 273 260 251 252 255 254 252 264 275 270 266 265 265 262 261 258